Helicity
50 52 75 72 57 41 31 35 30 26 23 25 39 40 45 55 65 63 59 60 64 62 57 59 53 56 35 31 41 39 49 12 3 32 33 49 58 41 51 30 6 -0 2 21 18 18 29
88 92 88 72 68 65 65 51 45 28 22 21 27 37 50 52 43 48 49 44 50 52 50 46 42 25 5 43 3 39 43 54 27 29 39 38 38 17 27 17 13 -15 -1 19 9 32 26
51 45 51 80 73 71 64 56 53 47 36 29 29 34 35 36 36 25 35 45 55 49 52 40 21 16 36 63 17 54 56 38 46 41 30 27 13 37 32 78 1 32 41 41 40 32 8
20 24 24 34 46 63 76 77 68 62 61 55 39 31 39 33 31 29 35 61 64 53 50 18 29 17 58 6 38 30 42 26 16 69 60 49 59 64 55 56 103 112 82 66 38 -6 -16
17 26 33 38 42 50 49 57 67 75 71 66 55 48 39 34 39 57 69 72 68 51 23 31 48 37 35 43 32 33 7 26 44 39 50 86 103 145 124 112 104 108 99 56 29 -10 -6
26 32 39 45 61 63 72 71 63 58 59 67 64 56 45 46 49 68 97 121 68 40 42 24 56 53 31 28 80 47 13 34 29 57 55 76 107 118 111 133 165 114 93 55 38 7 -1
39 48 55 63 62 62 67 96 75 83 95 86 88 65 50 46 55 114 101 67 72 -3 16 8 77 48 28 34 64 39 26 25 39 45 73 75 113 145 97 88 54 89 101 84 40 -18 4
32 40 51 64 83 100 92 93 120 117 117 124 134 92 66 54 65 126 69 38 115 99 49 51 26 -4 -18 -11 6 -33 40 58 44 62 42 78 127 62 35 42 41 49 51 59 77 61 64
53 70 73 65 69 81 84 88 119 137 121 125 145 123 86 43 108 105 39 77 135 128 34 11 24 42 7 41 7 -11 37 51 51 55 51 81 78 33 10 18 45 49 50 53 88 83 93
23 39 29 24 55 88 104 126 138 126 114 115 123 135 87 56 122 154 101 205 118 94 69 22 68 72 71 96 73 32 30 45 65 59 50 48 22 22 -11 41 24 45 34 40 56 122 141
40 15 19 43 44 60 81 88 106 121 117 113 114 122 86 43 107 153 174 139 61 74 156 59 125 121 70 25 150 32 41 97 55 59 86 70 57 73 54 36 21 38 13 24 19 19 88
19 28 45 74 95 137 133 122 85 85 95 90 92 97 84 56 140 76 66 69 88 133 178 118 115 58 51 24 42 98 62 27 85 46 82 97 74 20 18 24 25 25 28 59 86 60 84
43 44 70 100 93 85 94 70 73 54 50 37 47 38 55 51 126 102 162 128 166 233 59 49 89 16 13 23 38 51 60 58 93 141 100 61 84 69 46 89 50 58 87 96 86 129 98
65 57 80 85 66 78 45 56 58 77 95 73 65 39 21 31 28 64 46 172 205 145 52 59 79 117 70 21 55 45 33 64 13 56 162 103 80 35 87 62 27 64 93 126 102 66 53
81 78 84 64 55 44 47 82 84 43 65 66 85 35 22 5 -25 31 107 152 157 63 129 123 166 76 91 20 139 63 45 31 3 24 128 171 96 -4 66 61 27 29 78 39 90 38 32
86 84 86 84 63 55 77 49 49 33 1 25 32 10 11 -3 3 33 124 48 59 -0 114 117 261 138 59 17 70 71 27 28 143 192 128 145 74 57 58 24 41 119 23 55 65 103 86
88 87 79 70 53 56 52 38 35 9 43 44 4 20 4 -2 57 60 87 47 54 65 80 114 155 118 96 48 112 87 81 154 173 87 151 109 58 41 67 108 76 73 87 48 39 53 81
80 73 65 59 42 31 30 27 -3 -7 39 26 11 18 28 129 57 69 49 29 32 41 15 39 118 147 158 109 128 138 184 88 271 200 194 104 103 75 -20 18 57 97 20 58 130 99 71
88 76 62 45 21 21 16 -1 -8 -4 29 30 2 17 22 60 59 24 17 16 15 32 38 93 52 133 162 91 159 89 149 78 145 195 193 177 97 77 46 61 35 73 74 46 54 88 89
67 56 46 29 11 7 7 5 -9 -12 10 47 3 9 31 68 36 27 2 -23 9 28 58 55 43 54 60 95 76 165 85 23 64 130 145 142 130 168 117 181 185 107 90 119 108 98 70
61 56 34 25 21 9 4 4 -6 -0 4 57 12 10 46 34 36 14 35 47 30 -15 44 41 48 105 111 82 128 124 63 83 10 -9 24 65 83 111 92 123 168 204 164 146 160 128 153
51 35 22 22 13 13 16 9 8 4 27 75 67 16 49 44 46 18 4 22 37 27 29 5 -12 11 40 96 85 131 58 14 20 34 -29 86 37 54 38 49 47 75 69 87 96 113 88
30 2 10 25 23 22 5 19 9 1 29 51 79 43 42 -19 38 50 21 20 24 24 40 40 33 23 47 4 51 7 54 114 172 245 156 113 67 85 60 61 64 37 13 31 36 52 54
12 1 14 5 -0 10 13 24 11 5 16 41 76 57 26 -11 32 77 80 41 51 69 34 29 63 46 48 58 54 95 84 102 112 212 166 107 89 107 65 126 77 29 22 64 123 136 129
11 19 9 -2 8 -0 -4 5 10 22 -2 -22 31 44 50 2 62 65 64 72 30 37 37 13 19 31 34 43 39 35 48 44 22 39 69 57 69 79 85 89 82 82 68 69 149 131 135
6 -1 -8 -11 -7 -1 -2 1 4 -17 -10 6 22 42 53 15 35 83 46 98 32 42 46 34 8 34 -10 32 60 39 51 33 15 32 -12 12 45 68 81 86 92 92 137 119 72 83 90
-3 -16 -21 -9 2 5 19 25 -28 -23 -22 -68 -39 -44 58 15 12 67 62 61 102 32 44 84 48 28 18 33 23 27 51 17 31 36 33 55 80 38 35 86 55 37 78 42 68 128 117
-22 -21 -23 -19 10 19 10 -6 -11 -16 -20 -57 -65 -66 -36 23 13 59 59 85 104 45 62 40 23 19 47 36 17 18 36 39 10 37 17 57 63 72 47 55 47 27 34 80 90 66 81
-10 -10 -13 -17 -16 -17 -7 -7 -12 -18 -26 -26 -66 -34 -36 32 21 45 18 41 82 66 34 -36 -74 -60 56 43 27 40 2 47 75 62 6 45 30 61 66 48 15 70 94 57 4 41 49
Wind_Speed
57 57 59 60 60 62 63 64 64 64 66 67 67 68 71 74 76 77 79 81 83 83 82 81 80 77 65 55 56 65 38 38 34 28 20 21 26 26 35 33 33 34 35 43 53 64 78
56 57 59 61 63 64 64 64 65 66 68 69 69 70 71 73 75 78 80 83 84 84 83 82 78 67 57 70 50 41 43 45 42 31 31 28 28 26 40 38 39 43 60 59 63 63 67
57 58 60 60 62 65 65 65 67 67 69 70 70 71 73 74 76 80 83 86 87 85 85 81 68 56 62 63 55 67 49 41 43 35 38 32 38 43 42 49 50 63 63 74 77 73 79
57 60 62 64 65 66 68 69 69 70 70 72 72 73 74 76 78 82 87 89 89 87 83 70 57 52 69 53 53 54 52 52 42 41 41 39 44 53 51 54 65 60 53 69 64 72 67
58 63 64 65 66 68 71 71 72 72 73 74 75 73 74 77 80 85 92 93 94 87 68 55 52 46 70 45 46 42 31 45 41 34 34 36 39 46 48 51 58 58 68 69 78 78 69
62 63 67 67 67 68 72 75 73 74 76 78 79 77 74 77 81 87 93 96 88 71 53 45 48 58 54 47 43 45 49 43 40 37 39 40 42 49 45 49 56 56 58 68 75 72 67
66 66 69 70 71 66 71 75 75 75 75 78 78 76 72 74 81 85 87 71 62 54 47 54 52 58 70 67 71 54 45 37 36 39 44 39 45 50 47 48 57 75 77 82 78 68 53
65 66 69 70 71 70 72 77 77 73 72 76 77 73 73 75 80 82 74 58 56 59 86 72 76 89 79 70 86 63 43 47 42 49 42 43 52 47 48 53 59 64 75 93 92 86 78
65 68 70 73 73 73 76 77 73 74 74 74 75 72 70 74 80 68 52 63 55 64 75 87 69 67 64 47 71 61 43 45 52 49 46 47 47 40 47 60 67 77 81 76 88 86 86
70 74 76 76 75 74 73 76 76 78 77 77 74 71 66 69 68 60 59 46 54 57 76 83 56 53 37 38 60 40 32 40 49 58 48 54 50 50 61 54 68 84 72 82 81 83 92
72 73 74 74 77 77 79 80 80 79 77 75 72 69 65 54 62 60 51 53 53 46 84 43 36 22 21 31 43 37 19 37 53 51 46 58 59 70 69 81 62 81 78 71 71 71 86
70 72 72 72 74 70 71 75 76 75 76 72 71 67 62 59 55 50 49 50 44 61 83 59 38 47 43 43 46 31 33 30 40 54 63 70 73 73 72 74 78 67 64 65 70 69 84
67 70 70 68 68 62 65 67 67 67 67 73 72 68 54 53 61 55 46 42 58 75 54 64 48 46 46 47 43 37 36 37 39 43 53 72 89 78 71 66 63 54 53 55 57 55 74
68 68 67 63 62 60 63 60 57 61 66 70 64 61 54 54 57 55 43 46 72 62 58 60 46 48 50 49 47 39 43 43 40 45 62 51 77 67 64 60 60 57 55 51 56 58 68
64 65 66 59 55 56 56 56 55 55 60 63 65 63 62 59 53 45 44 62 63 58 59 59 60 53 61 49 48 45 46 48 44 41 57 63 80 54 53 53 57 59 55 59 84 64 54
63 62 60 55 53 51 51 51 45 42 62 56 63 63 72 60 43 41 50 69 58 62 72 56 61 50 58 52 48 50 46 37 36 39 38 46 47 34 39 49 49 64 45 53 67 75 74
61 58 56 54 52 47 47 41 33 38 58 58 53 50 54 29 22 40 56 57 58 75 63 49 56 62 68 53 46 62 47 35 28 32 39 42 46 39 33 37 54 58 82 72 63 60 71
57 55 53 53 51 45 44 32 25 4 50 40 48 44 35 4 32 45 60 60 73 67 56 48 65 63 60 51 49 50 39 36 36 41 41 35 44 50 48 30 37 44 53 65 70 61 60
54 53 53 50 49 43 44 27 24 29 34 41 45 61 44 30 42 49 55 67 70 65 61 58 62 71 69 59 50 51 45 37 40 38 40 42 45 58 55 46 44 48 48 47 61 69 78
53 53 52 49 44 48 47 33 23 21 26 37 46 44 39 41 55 65 59 67 60 61 63 59 67 70 73 71 65 57 46 44 44 46 44 42 49 56 57 44 42 46 52 45 46 55 66
53 49 44 47 49 52 51 38 33 22 18 23 28 45 42 38 48 65 70 53 54 57 51 58 71 77 72 68 75 79 73 73 60 49 48 46 61 64 68 63 60 61 60 58 57 53 61
45 39 37 44 42 53 52 40 34 24 18 29 34 37 57 70 64 59 66 70 67 60 57 49 63 63 77 85 79 84 75 74 70 58 59 50 68 62 71 73 73 75 71 70 70 70 72
34 20 32 42 41 49 39 45 31 20 10 28 37 62 58 57 54 67 60 56 65 58 53 62 52 57 64 66 63 72 60 58 56 55 52 51 54 58 68 62 64 71 71 71 71 72 75
26 24 32 42 42 39 37 33 28 25 15 18 39 55 61 77 73 65 58 57 57 58 59 57 50 36 54 48 53 57 61 62 65 66 54 48 53 54 55 53 61 49 39 41 45 50 55
32 37 40 48 53 46 42 37 31 37 15 20 25 37 52 71 72 71 68 63 55 51 56 49 57 59 43 47 49 56 64 70 78 76 73 61 54 52 51 53 58 62 52 42 39 31 36
33 32 43 51 54 58 56 44 36 16 16 22 68 34 50 64 73 67 62 65 59 55 54 50 57 53 45 39 42 52 54 56 54 53 57 53 53 54 44 54 48 27 26 35 39 40 37
34 37 45 58 63 65 70 78 22 39 73 68 71 39 52 71 76 71 64 62 61 51 49 51 50 50 52 45 51 54 63 42 50 50 38 45 45 59 60 52 52 43 50 42 43 40 44
43 52 51 54 75 79 79 77 76 75 73 65 62 54 39 64 76 70 71 74 65 54 56 51 47 53 45 47 49 51 51 50 44 36 34 32 39 47 52 55 58 47 39 42 37 44 48
59 59 62 66 71 75 76 74 73 73 73 55 59 47 50 66 58 56 77 78 78 70 63 53 55 46 41 47 51 45 49 45 50 44 16 40 38 36 34 45 49 45 41 45 45 48 52
Wind_Direction
328 327 327 326 325 324 323 323 324 323 322 323 323 322 321 319 318 316 314 313 311 309 309 309 310 312 314 303 297 302 318 316 312 313 305 288 282 273 279 284 289 282 283 292 297 294 292
331 331 328 326 325 324 325 323 323 322 321 320 321 321 321 321 319 317 315 312 309 308 308 307 308 311 308 297 308 316 312 308 302 299 294 291 289 283 290 290 287 294 294 295 293 293 296
329 329 328 329 328 327 325 323 322 322 321 321 320 320 320 320 320 316 315 311 308 307 307 308 312 311 300 294 304 298 308 309 305 300 286 285 290 289 294 293 292 293 294 290 284 287 288
329 329 328 325 325 325 324 324 323 322 321 320 320 319 319 318 319 317 314 310 307 305 307 310 315 308 295 308 306 303 301 298 296 298 296 290 288 288 281 289 290 294 294 290 291 285 289
330 329 329 328 325 323 323 321 321 321 321 320 319 318 318 317 317 316 311 305 301 302 310 314 310 305 297 317 303 310 308 299 297 288 291 299 291 282 287 280 283 282 284 287 287 278 288
328 329 329 328 328 325 323 322 317 317 316 315 316 315 316 317 316 314 310 303 300 306 310 310 302 298 299 300 311 308 310 308 299 294 283 280 287 276 269 272 267 279 281 283 284 283 287
327 328 327 326 324 324 323 322 319 318 316 314 313 313 315 316 316 313 312 316 310 306 303 291 299 288 293 297 299 299 307 298 299 288 280 271 271 262 267 266 272 276 279 277 277 283 289
328 328 327 326 325 324 322 320 319 318 318 317 313 312 313 315 315 312 309 308 311 309 293 291 287 283 288 293 286 289 300 284 284 280 281 276 263 273 273 273 271 271 273 270 270 274 284
330 330 328 325 324 321 320 319 317 315 315 315 314 313 312 313 312 310 308 304 314 314 295 291 287 285 288 285 281 284 284 281 279 277 274 270 282 269 274 272 269 268 269 274 271 273 279
328 326 325 323 323 323 322 321 317 315 312 311 309 309 310 313 310 310 304 316 318 318 295 291 289 294 284 295 293 285 273 270 276 273 274 274 279 277 275 269 267 267 270 270 273 271 268
329 328 327 327 324 321 320 317 314 314 312 310 307 302 305 307 306 301 309 313 313 312 285 302 288 312 293 285 310 304 293 278 271 272 274 270 274 272 269 266 273 269 268 270 273 273 272
327 329 328 327 328 325 323 322 320 314 312 308 307 299 298 298 296 302 302 311 305 285 277 288 290 285 280 285 291 304 304 289 290 273 271 274 271 268 268 271 265 274 268 270 273 274 270
328 328 328 329 329 328 327 326 324 320 313 309 302 297 289 291 287 303 307 297 281 271 290 285 282 283 279 283 286 285 291 285 284 279 271 269 262 265 272 269 268 260 264 267 269 268 272
329 327 330 330 329 328 328 329 326 322 318 311 300 293 285 283 285 291 289 276 268 277 275 293 298 293 281 286 283 281 282 283 279 276 279 275 263 259 261 261 264 252 252 259 264 273 276
329 331 332 330 330 331 332 331 326 321 320 312 290 281 277 275 277 280 274 261 269 275 285 292 293 278 284 280 282 279 275 277 281 270 272 271 261 268 253 257 257 254 251 258 258 273 281
326 328 331 332 331 331 332 333 334 333 291 298 277 275 266 268 273 271 266 264 272 275 288 287 279 286 285 280 272 271 271 274 274 281 286 271 277 268 274 245 256 255 262 255 258 260 264
324 327 328 329 329 332 332 337 344 328 295 282 280 282 275 269 267 265 263 267 277 269 280 283 278 279 279 288 278 273 269 283 273 280 284 282 269 283 272 259 254 255 250 255 267 262 260
323 324 325 326 327 330 330 339 345 298 292 288 278 283 292 237 270 270 266 270 265 271 275 281 273 274 275 286 274 276 268 273 287 279 270 283 273 263 265 273 270 267 257 252 255 259 264
321 323 323 323 327 324 324 337 339 324 309 287 281 259 280 281 276 272 272 267 265 269 270 274 272 265 266 269 273 267 270 283 282 282 270 277 269 259 262 272 274 266 266 267 257 261 256
320 319 319 319 320 314 314 329 332 326 319 287 281 283 279 277 272 264 271 266 271 268 270 273 268 266 260 262 261 264 269 275 273 274 278 278 268 260 256 273 282 268 267 275 272 264 260
318 317 318 316 314 307 303 311 310 313 322 298 295 277 284 291 279 265 260 276 274 271 278 275 266 260 260 263 257 256 261 262 265 271 272 272 262 265 262 269 271 269 268 269 268 271 265
318 318 317 314 313 302 298 301 302 298 297 290 289 290 275 262 268 272 259 259 264 274 274 273 268 268 259 256 257 253 257 260 254 263 260 271 260 267 264 265 266 265 266 268 267 268 270
318 307 315 312 311 301 298 292 298 290 252 291 286 266 274 270 278 260 265 271 265 271 279 271 275 272 264 258 264 255 265 265 261 260 259 266 263 266 262 268 267 265 267 268 270 270 268
309 307 313 311 307 303 298 292 288 280 215 277 285 274 267 249 254 257 268 273 271 268 271 271 280 281 266 284 271 264 260 261 258 255 260 265 262 263 264 270 261 275 284 288 284 281 282
307 310 306 303 298 295 292 290 286 279 228 203 283 283 273 256 253 253 257 263 270 278 274 282 268 251 283 268 264 256 250 250 249 250 249 256 259 263 263 264 269 273 283 283 291 301 301
304 305 304 297 291 284 280 283 282 249 238 250 242 281 273 264 248 255 262 257 263 274 275 275 254 259 262 272 260 247 244 245 249 257 248 251 254 255 265 262 268 292 303 307 296 285 313
297 301 300 288 280 277 261 247 267 215 212 202 221 186 266 248 250 249 253 256 259 274 276 261 261 257 246 259 251 248 241 258 252 252 241 241 247 250 256 266 269 278 289 300 284 292 309
231 230 224 221 239 245 240 233 227 218 207 196 202 193 182 255 244 249 251 246 251 263 260 261 258 243 253 250 247 249 250 252 255 263 244 243 248 255 260 265 269 286 287 291 303 307 305
231 229 228 228 230 232 232 226 220 213 206 192 200 190 189 244 252 255 242 241 242 247 251 248 226 255 264 248 247 259 253 260 257 259 266 255 259 263 269 271 272 287 299 300 306 305 309